Location: *
(57.8420°S, 159.8600°W)
Time: 04:51:26
(UTC+00:00)

USA 238 DEB - Pass Details

Date: 18 May 2021
Orbit: 991 x 1221 km, 63.4° (Epoch: 18 June)

Event Time Altitude Azimuth Distance (km) Brightness Sun altitude
Rises 06:22:20 0° 258° (WSW) 4,061 7.9 -30.6°
Reaches altitude 10° 06:25:12 10° 253° (WSW) 3,068 7.0 -31.0°
Maximum altitude 06:32:23 56° 175° (S) 1,308 4.1 -31.9°
Enters shadow 06:32:35 56° 169° (SSE) 1,308 4.0 -31.9°
